sat.trackr.live / text

‹ back to catalog

ONEWEB-0233

NORAD 48795 · 2021-045AE

PAYLOAD ACTIVE UNKNOWN

§ Identity

Operator
Country
UK
Launch date
2021-05-28
Launch site
VOSTO
Launch vehicle
Mass (kg)
RCS (m²)

Purposes: comms

External: N2YO · Heavens-Above · Gunter

§ Orbital elements

Epoch: 2026-09-03T10:24:51.456960Z

Period
109.46 min
Inclination
87.8957°
Eccentricity
0.0002121
Mean motion
13.15549910 rev/d
Perigee alt
1,200.2 km
Apogee alt
1,203.4 km
Semi-major
7,579.9 km
B*
2.2818e-4
RAAN
243.6310°
Arg perigee
79.9281°
Mean anomaly
280.2089°
Rev number
25,458

§ Raw data

ONEWEB-02331 48795U 21045AE  26246.43392890  .00000099  00000+0  22818-3 0  99942 48795  87.8957 243.6310 0002121  79.9281 280.2089 13.15549910254581

JSON: /api/v1/satellites/48795 · /tle

For live sub-satellite position, see the globe view (requires WebGL).

§ Visibility from observer

Set your observer location to see the next 7 days of passes ≥ 10°. The values pass through the URL so the page stays shareable.

No JS? Fill the form by hand. The geolocation button needs JavaScript.